Location: D�pe
(52.6057°N, 8.1808°E)
Time: 01:20:12
(UTC+00:00)

Cosmos 2315 Rocket - Pass Details

Date: 29 October 2020
Orbit: 966 x 1002 km, 82.9° (Epoch: 23 November)

Event Time Altitude Azimuth Distance (km) Brightness Sun altitude
Rises 19:03:40 0° 196° (SSW) 3,650 7.0 -27.9°
Reaches altitude 10° 19:06:10 10° 198° (SSW) 2,705 6.3 -28.3°
Maximum altitude 19:12:20 71° 282° (WNW) 1,025 4.1 -29.2°
Drops below altitude 10° 19:18:34 10° 7° (N) 2,722 6.4 -30.1°
Sets 19:21:06 0° 10° (N) 3,675 7.1 -30.4°
